This is the latest recevied weather packets stored in our database for station/object KE8URB. If no packets are shown the sender has not sent any weather packets the latest 10 day(s).
| Time | Temp. | Humidity | Pressure | Rain* | Wind** | Luminosity | Snow |
|---|---|---|---|---|---|---|---|
| 1788014220 | 21.11° C | 66% | 1025 hPa | 0 mm | - | 139 W/m² | - |
| 1788013915 | 20.56° C | 69% | 1025 hPa | 0 mm | - | 33 W/m² | - |
| 1788013615 | 20.56° C | 69% | 1024.8 hPa | 0 mm | - | 32 W/m² | - |
| 1788013309 | 20.56° C | 70% | 1024.7 hPa | 0 mm | - | 49 W/m² | - |
| 1788013003 | 20° C | 71% | 1024.9 hPa | 0 mm | - | 32 W/m² | - |
| 1788012697 | 20° C | 72% | 1024.6 hPa | 0 mm | - | 29 W/m² | - |
| 1788012393 | 20° C | 70% | 1024.3 hPa | 0 mm | - | 29 W/m² | - |
| 1788012087 | 19.44° C | 71% | 1024.8 hPa | 0 mm | - | 30 W/m² | - |
| 1788011787 | 19.44° C | 73% | 1024.6 hPa | 0 mm | - | 32 W/m² | - |
| 1788011486 | 19.44° C | 73% | 1024.8 hPa | 0 mm | - | 32 W/m² | - |
| 1788011181 | 19.44° C | 75% | 1024.8 hPa | 0 mm | - | 68 W/m² | - |
| 1788010876 | 18.89° C | 74% | 1024.6 hPa | 0 mm | - | 29 W/m² | - |
| 1788010575 | 18.33° C | 74% | 1024.6 hPa | 0 mm | - | 30 W/m² | - |
| 1788010269 | 18.33° C | 76% | 1024.6 hPa | 0 mm | - | 91 W/m² | - |
| 1788009969 | 17.78° C | 77% | 1024.4 hPa | 0 mm | - | 45 W/m² | - |
| 1788009668 | 17.78° C | 78% | 1024.5 hPa | 0 mm | - | 31 W/m² | - |
| 1788009362 | 17.78° C | 80% | 1024.6 hPa | 0 mm | - | 28 W/m² | - |
| 1788009061 | 17.22° C | 80% | 1024.5 hPa | 0 mm | - | 28 W/m² | - |
| 1788008757 | 16.67° C | 82% | 1024.3 hPa | 0 mm | - | 27 W/m² | - |
| 1788008456 | 16.67° C | 84% | 1024.5 hPa | 0 mm | - | 27 W/m² | - |
| 1788008154 | 16.11° C | 87% | 1024.5 hPa | 0 mm | - | 27 W/m² | - |
| 1788007852 | 15.56° C | 90% | 1024.5 hPa | 0 mm | - | 31 W/m² | - |
| 1788007552 | 15.56° C | 90% | 1024.5 hPa | 0 mm | - | 29 W/m² | - |
| 1788007251 | 14.44° C | 93% | 1024.5 hPa | 0 mm | - | 25 W/m² | - |
| 1788006951 | 13.89° C | 95% | 1024.5 hPa | 0 mm | - | 24 W/m² | - |
* Rain latest hour (hover to see other rain measurements)
** Current wind speed in m/s (hover to see current wind gust speed)